[Date Prev][Date Next][Thread Prev][Thread Next] - [Date Index][Thread Index][Author Index]

2 Line ISS Keps 1-5



ISS 
1 25544U 98067A   05005.03405421  .00026189  00000-0  19709-3 0  5170
2 25544  51.6400  15.1481 0003516 162.0921 238.2077 15.72344771350035
----
Via the sarex mailing list at AMSAT.ORG courtesy of AMSAT-NA.
To unsubscribe, send "unsubscribe sarex" to Majordomo@amsat.org



AMSAT Top AMSAT Home